STARLINK-11591, 63116

Orbit data source: Space-Track

STARLINK-11591, 63116 is a payload satellite owned by SpaceX/Seattle (US) in LEO that was launched on Thu, 27 Feb 2025 UTC via an FALCON 9 launch vehicle from the Air Force Eastern Test Range (AFETR). Payload-class satellites include a variety of spacecraft equipped with specific instruments for various scientific and technological missions. These include communications satellites like Starlink; space stations such as the ISS; scientific satellites like the Hubble; Earth observation satellites from companies like Planet Labs, Umbra, and HawkEye 360; GPS; miniature CubeSats for education and research; and military/defense satellites.

Loading next visibility...
Identifier
63116, 2025-039N
Orbit
LEO
Country
Flag of USUS
Related business
Manufacturer
SpaceX/Seattle
Mission
Operational Commercial Communications
Bus & Motor
STARLINK V2MD, Unknown motor
Mass
960 kg wet, ~910 kg dry
Launch date (UTC)
2025-02-27 (1 year ago)
Launch vehicle
FALCON 9
Launch site
Air Force Eastern Test Range (AFETR)
Object type
Payload
Rocket body
Debris
Shape & HBR
Box + 2 Pan, 18.1 m
Radar Cross Section
36.964 m², Large (>1 m²)

Expand to show TLE details & history
Last TLE update: 20 hours ago

TLE from 20 hours ago
0 STARLINK-11591
1 63116U 25039N   26104.06677382  .00105901  00000-0  81860-3 0  9990
2 63116  43.0014  23.2155 0002185 284.6779  75.3846 15.70830947 65185
Epoch: 2026-04-14T01:36Z
TLE epoch observation values (Epoch: 2026-04-14T01:36:09.258Z)
Latitude
-0.00003°
Longitude
156.92854°
Altitude
355.921 km
Speed
7.698 km/s
True Right ascension
01h 32m 51s
True Declination
0° 00' 00"
Sunlit
Object was in daylight at epoch
Visualization orbit readout
Latitude
Unknown
Longitude
Unknown
Altitude
Unknown
Speed
Unknown
Apparent Right ascension
Unknown
Apparent Declination
Unknown
Sunlit
N/A
Visualization observer readout
Local Sidereal Time
03:38:59
Azimuth
Unknown
Elevation
Unknown
Doppler factor
Unknown
Orbital elements
Apogee altitude
359.974 km
Perigee altitude
357.03 km
Semi-major axis
6,736.639 km
Eccentricity
0.00022
Inclination
43.0014°
RAAN
23.2155°
Arg. of periapsis
284.6779°
True anomaly
75.40883°
Mean anomaly
75.3846°
Eccentric anomaly
75.39671°
Mean motion
3.92535 °/min
Orbital period
91.71 mins
BSTAR
0.0008186
Loading maneuver chart data...
Computing Atmospheric mass density...
Loading historical data...
Loading historical data...
Loading historical data...
Loading historical data...
Loading historical data...
Loading historical data...
Loading historical data...

Documentation

Showing up to 5 results
|